Location: *
(58.7167°N, 26.1833°E)
Time: 23:15:47
(UTC+00:00)

Timation 2 Rocket - Pass Details

Date: 25 August 2019
Orbit: 908 x 1074 km, 70.0° (Epoch: 18 October)

Event Time Altitude Azimuth Distance (km) Brightness Sun altitude
Exits shadow 23:46:42 20° 243° (WSW) 2,199 5.4 -18.4°
Maximum altitude 23:51:27 62° 319° (NW) 1,136 4.4 -18.1°
Drops below altitude 10° 23:57:50 10° 41° (NE) 2,747 7.5 -17.8°
Sets 00:00:23 0° 45° (NE) 3,672 8.4 -17.6°
